DLH323 LICJ-EDDF

Flight info

Callsign DLH323
Flight time N/A
Altitude 36000
Route LURON DCT DORAS DCT NIKMA DCT UNIMI L12 MOGTI Q163 OLASO/N0434F320 Q163 HAFUN/N0388F240 Q163 ETASA T163 SPESA SPESA5C
Aircraft A321/M-SDE3FGHIRWY/LB1

Departure

Time N/A
Airport Falcone–Borsellino Airport (LICJ)

Arrival

Time 2026-05-01 15:04
Airport Frankfurt Main Airport (EDDF)
Time Latitude Longitude Altitude Speed Heading
2026-05-01 14:55 49.84631 8.15399 4009 ft 197 kts 245°
2026-05-01 14:55 49.84173 8.13387 4001 ft 200 kts 253°
2026-05-01 14:55 49.84295 8.11243 3999 ft 207 kts 292°
2026-05-01 14:56 49.85243 8.09585 4001 ft 209 kts 331°
2026-05-01 14:56 49.86625 8.09122 4009 ft 203 kts 10°
2026-05-01 14:56 49.87946 8.09760 4016 ft 197 kts 26°
2026-05-01 14:56 49.89195 8.10616 4008 ft 197 kts 28°
2026-05-01 14:57 49.90444 8.11490 4011 ft 197 kts 29°
2026-05-01 14:57 49.92794 8.13522 4007 ft 193 kts 50°
2026-05-01 14:57 49.93514 8.15218 4009 ft 185 kts 72°
2026-05-01 14:58 49.93972 8.17092 4010 ft 186 kts 73°
2026-05-01 14:58 49.94429 8.18974 4020 ft 187 kts 75°
2026-05-01 14:58 49.94886 8.20851 3992 ft 185 kts 73°
2026-05-01 14:58 49.95342 8.22726 4012 ft 185 kts 73°
2026-05-01 14:59 49.95792 8.24569 4029 ft 177 kts 73°
2026-05-01 14:59 49.96220 8.26333 3916 ft 169 kts 73°
2026-05-01 14:59 49.96617 8.27963 3725 ft 153 kts 74°
2026-05-01 14:59 49.96979 8.29450 3544 ft 142 kts 73°
2026-05-01 15:00 49.97657 8.32264 3171 ft 138 kts 74°
2026-05-01 15:00 49.97986 8.33644 2990 ft 135 kts 75°
2026-05-01 15:00 49.98315 8.35017 2811 ft 135 kts 74°
2026-05-01 15:01 49.98649 8.36394 2620 ft 137 kts 74°
2026-05-01 15:01 49.98983 8.37802 2438 ft 141 kts 75°
2026-05-01 15:01 49.99343 8.39246 2276 ft 144 kts 72°
2026-05-01 15:01 49.99706 8.40645 2056 ft 136 kts 73°
2026-05-01 15:02 50.00017 8.41989 1855 ft 132 kts 72°
2026-05-01 15:02 50.00120 8.42451 1802 ft 136 kts 74°
2026-05-01 15:02 50.00665 8.44742 1539 ft 136 kts 75°
2026-05-01 15:02 50.01007 8.46104 1351 ft 137 kts 75°
2026-05-01 15:03 50.01353 8.47523 1164 ft 142 kts 73°
2026-05-01 15:03 50.01692 8.48991 966 ft 145 kts 74°
2026-05-01 15:03 50.02042 8.50462 811 ft 139 kts 71°
2026-05-01 15:03 50.02374 8.51813 581 ft 131 kts 72°
2026-05-01 15:04 50.02681 8.53102 410 ft 125 kts 72°
2026-05-01 15:04 50.02967 8.54315 353 ft 105 kts 69°
2026-05-01 15:04 50.03162 8.55122 352 ft 55 kts 70°
2026-05-01 15:04 50.03271 8.55563 346 ft 40 kts 66°
2026-05-01 15:05 50.03425 8.55843 351 ft 28 kts 39°
2026-05-01 15:05 50.03519 8.55963 344 ft 10 kts 39°
2026-05-01 15:05 50.03529 8.55976 352 ft 0 kts 39°
2026-05-01 15:06 50.03550 8.56003 352 ft 11 kts 40°
2026-05-01 15:06 50.03626 8.56109 351 ft 16 kts 48°
2026-05-01 15:06 50.03686 8.56286 349 ft 21 kts 70°
2026-05-01 15:07 50.03737 8.56506 352 ft 22 kts 70°
2026-05-01 15:07 50.03794 8.56739 347 ft 24 kts 69°
2026-05-01 15:07 50.03852 8.56984 353 ft 25 kts 69°
2026-05-01 15:07 50.03913 8.57238 351 ft 26 kts 69°
2026-05-01 15:08 50.03976 8.57501 346 ft 26 kts 70°
2026-05-01 15:08 50.04041 8.57770 351 ft 25 kts 69°
2026-05-01 15:08 50.04102 8.58028 351 ft 24 kts 70°
2026-05-01 15:08 50.04206 8.58187 349 ft 20 kts 25°
2026-05-01 15:09 50.04279 8.58204 344 ft 3 kts 348°
2026-05-01 15:09 50.04281 8.58203 344 ft 0 kts 347°
2026-05-01 15:11 50.04284 8.58202 352 ft 1 kts 347°
2026-05-01 15:11 50.04306 8.58191 354 ft 7 kts 340°
2026-05-01 15:12 50.04376 8.58149 351 ft 13 kts 339°
2026-05-01 15:12 50.04583 8.58030 349 ft 18 kts 339°
2026-05-01 15:12 50.04700 8.57949 352 ft 16 kts 311°
2026-05-01 15:13 50.04590 8.57411 350 ft 24 kts 249°
2026-05-01 15:14 50.04469 8.56905 355 ft 25 kts 250°
2026-05-01 15:14 50.04410 8.56655 354 ft 24 kts 250°
2026-05-01 15:14 50.04299 8.56191 349 ft 20 kts 250°
2026-05-01 15:15 50.04436 8.56062 350 ft 14 kts 48°
2026-05-01 15:15 50.04490 8.56302 345 ft 7 kts 95°
2026-05-01 15:16 50.04448 8.56327 350 ft 2 kts 169°
2026-05-01 15:16 50.04435 8.56330 348 ft 0 kts 170°